Weather reports worldwide

Advertisment
Ancona, Italy (16190): temperature & dewpoint: 12.10.2018 19:00:00 - 18.10.2018 19:00:00 (CEST)Ancona, Italy (16190): reduced air pressure: 12.10.2018 19:00:00 - 18.10.2018 19:00:00 (CEST)Ancona, Italy (16190): precipitation: 12.10.2018 19:00:00 - 18.10.2018 19:00:00 (CEST)
Date & Time tt [°C] td [°C] ppp [hPa] rr [mm]
18.10.2018 19:00:00 - - - -
18.10.2018 18:00:00 17,3 15,4 1010,2 -
18.10.2018 17:00:00 18,5 15,9 1010,0 -
18.10.2018 16:00:00 18,7 16,2 1010,3 -
18.10.2018 15:00:00 18,8 16,5 1010,6 -
18.10.2018 14:00:00 18,6 16,3 1011,1 0,0
18.10.2018 13:00:00 17,8 16,2 1011,6 -
18.10.2018 12:00:00 17,3 17,1 1012,0 -
18.10.2018 11:00:00 16,4 16,3 1012,1 -
18.10.2018 10:00:00 16,1 16,0 1011,9 -
18.10.2018 09:00:00 15,6 15,5 1011,9 -
18.10.2018 08:00:00 15,4 15,3 1011,7 0,0
18.10.2018 07:00:00 15,5 15,4 1011,5 -
18.10.2018 06:00:00 15,7 15,6 1011,3 -
18.10.2018 05:00:00 15,5 15,4 1011,4 -
18.10.2018 04:00:00 15,7 15,6 1011,8 -
18.10.2018 03:00:00 15,9 15,8 1012,2 -
18.10.2018 02:00:00 16,1 16,0 1012,6 0,0
18.10.2018 01:00:00 15,7 15,6 1012,8 -
18.10.2018 00:00:00 16,4 16,3 1013,0 -
17.10.2018 23:00:00 16,6 16,5 1013,2 -
17.10.2018 22:00:00 16,6 16,5 1013,1 -
17.10.2018 21:00:00 16,7 16,6 1013,0 -
17.10.2018 20:00:00 16,7 16,6 1012,7 0,0
17.10.2018 19:00:00 16,9 16,8 1012,5 -
17.10.2018 18:00:00 17,0 16,9 1012,2 -
17.10.2018 17:00:00 17,2 17,1 1012,4 -
17.10.2018 16:00:00 17,5 17,4 1012,5 -
17.10.2018 15:00:00 17,3 17,2 1012,9 -
17.10.2018 14:00:00 17,4 17,3 1013,2 0,0
17.10.2018 13:00:00 17,4 17,3 1013,6 -
17.10.2018 12:00:00 17,2 17,1 1014,0 -
17.10.2018 11:00:00 17,3 17,2 1014,0 -
17.10.2018 10:00:00 17,3 17,2 1013,9 -
17.10.2018 09:00:00 17,7 17,6 1014,0 -
17.10.2018 08:00:00 17,7 17,6 1013,5 0,0
17.10.2018 07:00:00 17,9 17,8 1013,4 -
17.10.2018 06:00:00 18,3 18,2 1013,2 -
17.10.2018 05:00:00 18,3 18,2 1013,3 -
17.10.2018 04:00:00 18,4 18,3 1013,4 -
17.10.2018 03:00:00 18,3 18,1 1014,0 -
17.10.2018 02:00:00 18,1 17,6 1014,1 0,0
17.10.2018 01:00:00 17,8 17,1 1014,4 -
17.10.2018 00:00:00 17,9 17,5 1014,4 -
16.10.2018 23:00:00 17,9 17,7 1014,5 -
16.10.2018 22:00:00 18,5 18,4 1014,2 -
16.10.2018 21:00:00 18,5 18,4 1014,5 -
16.10.2018 20:00:00 18,9 18,8 1014,5 0,0
16.10.2018 19:00:00 18,8 18,6 1014,2 -
16.10.2018 18:00:00 18,9 18,5 1014,2 -
16.10.2018 17:00:00 19,1 18,4 1014,4 -
16.10.2018 16:00:00 19,5 18,6 1014,2 -
16.10.2018 15:00:00 19,4 18,4 1014,4 -
16.10.2018 14:00:00 19,9 18,5 1014,6 0,0
16.10.2018 13:00:00 19,3 18,4 1014,8 -
16.10.2018 12:00:00 18,9 18,2 1015,1 -
16.10.2018 11:00:00 19,1 18,2 1014,9 -
16.10.2018 10:00:00 18,5 17,6 1015,0 -
16.10.2018 09:00:00 18,5 18,0 1014,5 -
16.10.2018 08:00:00 18,1 17,6 1014,1 0,0
16.10.2018 07:00:00 18,4 17,9 1013,9 -
16.10.2018 06:00:00 18,2 17,7 1014,0 -
16.10.2018 05:00:00 18,0 17,5 1013,8 -
16.10.2018 04:00:00 17,8 17,1 1013,9 -
16.10.2018 03:00:00 17,7 16,8 1014,2 -
16.10.2018 02:00:00 17,6 16,4 1014,2 0,0
16.10.2018 01:00:00 17,4 16,5 1014,2 -
16.10.2018 00:00:00 17,7 17,0 1014,2 -
15.10.2018 23:00:00 17,8 16,8 1014,2 -
15.10.2018 22:00:00 17,7 16,5 1014,2 -
15.10.2018 21:00:00 17,8 16,2 1014,2 -
15.10.2018 20:00:00 18,2 16,1 1014,2 0,0
15.10.2018 19:00:00 18,0 15,7 1014,0 -
15.10.2018 18:00:00 18,0 16,1 1013,6 -
15.10.2018 17:00:00 18,4 16,3 1013,2 -
15.10.2018 16:00:00 19,1 16,1 1013,0 -
15.10.2018 15:00:00 19,3 16,5 1013,0 -
15.10.2018 14:00:00 19,2 15,6 1013,4 0,0
15.10.2018 13:00:00 19,2 16,4 1013,9 -
15.10.2018 12:00:00 18,5 17,6 1014,0 -
15.10.2018 11:00:00 17,5 17,1 1014,2 -
15.10.2018 10:00:00 17,0 16,6 1013,7 -
15.10.2018 09:00:00 16,7 16,3 1013,6 -
15.10.2018 08:00:00 16,5 16,0 1013,2 0,0
15.10.2018 07:00:00 15,9 15,2 1012,9 -
15.10.2018 06:00:00 15,7 14,8 1012,8 -
15.10.2018 05:00:00 15,8 14,9 1013,0 -
15.10.2018 04:00:00 15,8 14,9 1013,2 -
15.10.2018 03:00:00 15,8 15,1 1013,5 -
15.10.2018 02:00:00 16,1 15,6 1013,5 0,0
15.10.2018 01:00:00 16,5 16,1 1013,4 -
15.10.2018 00:00:00 16,3 15,8 1013,5 -
14.10.2018 23:00:00 16,5 15,8 1013,5 -
14.10.2018 22:00:00 16,7 15,8 1013,5 -
14.10.2018 21:00:00 16,5 15,5 1013,5 -
14.10.2018 20:00:00 16,9 15,7 1013,3 0,0
14.10.2018 19:00:00 17,4 15,3 1013,1 -
14.10.2018 18:00:00 18,8 15,6 1012,9 -
14.10.2018 17:00:00 19,8 16,8 1012,9 -
14.10.2018 16:00:00 19,2 16,2 1013,3 -
14.10.2018 15:00:00 19,3 16,1 1013,9 -
14.10.2018 14:00:00 19,1 15,9 1014,5 0,0
14.10.2018 13:00:00 18,0 15,0 1015,3 -
14.10.2018 12:00:00 17,5 14,7 1015,8 -
14.10.2018 11:00:00 16,8 14,4 1015,9 -
14.10.2018 10:00:00 16,2 14,3 1015,9 -
14.10.2018 09:00:00 15,3 13,9 1015,9 -
14.10.2018 08:00:00 14,8 13,3 1015,4 0,0
14.10.2018 07:00:00 15,1 13,6 1015,5 -
14.10.2018 06:00:00 15,2 14,0 1015,6 -
14.10.2018 05:00:00 15,2 14,2 1015,8 -
14.10.2018 04:00:00 14,9 13,9 1016,1 -
14.10.2018 03:00:00 15,0 14,0 1016,4 -
14.10.2018 02:00:00 15,3 14,1 1016,7 0,0
14.10.2018 01:00:00 15,5 14,1 1016,8 -
14.10.2018 00:00:00 15,8 14,6 1016,9 -
13.10.2018 23:00:00 16,0 14,8 1017,2 -
13.10.2018 22:00:00 16,4 14,9 1017,3 -
13.10.2018 21:00:00 16,9 15,4 1017,3 -
13.10.2018 20:00:00 16,9 15,5 1017,2 0,0
13.10.2018 19:00:00 17,2 15,5 1016,9 -
13.10.2018 18:00:00 18,1 15,3 1016,9 -
13.10.2018 17:00:00 19,4 15,6 1016,8 -
13.10.2018 16:00:00 20,0 16,4 1017,1 -
13.10.2018 15:00:00 19,3 16,5 1017,5 -
13.10.2018 14:00:00 18,8 16,7 1018,3 -
13.10.2018 13:00:00 18,2 16,1 1019,0 -
13.10.2018 12:00:00 17,9 16,0 1019,4 -
13.10.2018 11:00:00 17,4 15,3 1019,7 -
13.10.2018 10:00:00 16,7 14,8 1019,5 -
13.10.2018 09:00:00 15,8 14,4 1019,3 -
13.10.2018 08:00:00 15,1 13,6 1019,0 0,0
13.10.2018 07:00:00 15,4 13,7 1019,0 -
13.10.2018 06:00:00 15,7 13,6 1019,1 -
13.10.2018 05:00:00 16,0 13,9 1019,3 -
13.10.2018 04:00:00 16,0 14,3 1019,6 -
13.10.2018 03:00:00 16,0 14,1 1019,9 -
13.10.2018 02:00:00 15,9 13,7 1019,9 0,0
13.10.2018 01:00:00 15,9 14,0 1019,9 -
13.10.2018 00:00:00 15,6 14,1 1020,2 -
12.10.2018 23:00:00 15,4 14,4 1020,6 -
12.10.2018 22:00:00 15,9 15,4 1020,6 -
12.10.2018 21:00:00 16,5 15,8 1020,4 -
12.10.2018 20:00:00 16,8 15,9 1020,1 0,0
12.10.2018 19:00:00 17,0 15,8 1019,8 -

tt = temperature
td = dewpoint
ppp = reduced air pressure
rr = precipitation

Next stations